DW2959 Murcia ES current weather conditions

sailwx.info

Wind from 238

Air temperature 15.6° C
Dewpoint 13.0° C

Last reported at 2016-Dec-05 17:54 UTC.
Time now 2016-Dec-05 18:40 UTC

Location: N 38°00' W 001°02'.
View on Google Maps.

See reports from other nearby stations

  
Tides and Currents Weather Stations Pressure Air Temp Water Temp Dewpoint Dewpoint Depression Visibility Wind Speed Wind Dir Waves Ship Positions
date/time (UTC)wind fromknots sea level pressurealtimeterstation pressurevisibilityair tempwater tempwave heightnotes
2016-Dec-05 17:54 238 15.6
2016-Dec-05 17:40 238 15.6
2016-Dec-05 17:24 238 15.6
2016-Dec-05 17:10 238 15.6
2016-Dec-05 16:54 238 15.6
2016-Dec-05 16:39 238 15.6
2016-Dec-05 16:24 238 15.6
2016-Dec-05 16:08 237 16.1
2016-Dec-05 15:53 237 16.1
2016-Dec-05 15:38 238 16.1
2016-Dec-05 15:23 237 16.1
2016-Dec-05 15:09 238 16.1
2016-Dec-05 14:52 238 16.1
2016-Dec-05 14:38 238 16.1
2016-Dec-05 14:22 238 16.1
2016-Dec-05 14:08 237 1 gusting 6 16.1
2016-Dec-05 11:22 246 15.0
2016-Dec-05 11:07 250 2 gusting 6 15.0
2016-Dec-05 10:52 255 0 gusting 3 15.0
2016-Dec-05 10:37 255 0 gusting 5 15.0
2016-Dec-05 10:26 257 1 gusting 5 15.0
2016-Dec-05 10:06 249 2 gusting 6 15.0
2016-Dec-05 09:52 237 14.4
2016-Dec-05 09:36 238 1 gusting 6 14.4
2016-Dec-05 09:22 255 1 gusting 6 14.4
2016-Dec-05 09:05 231 1 gusting 5 14.4
2016-Dec-05 08:50 228 0 gusting 4 14.4
2016-Dec-05 08:35 228 14.4
2016-Dec-05 08:19 227 14.4
2016-Dec-05 08:05 227 14.4
2016-Dec-05 07:49 227 14.4
2016-Dec-05 07:35 227 0 gusting 3 14.4
2016-Dec-05 07:19 226 0 gusting 6 14.4
2016-Dec-05 07:05 229 2 gusting 5 14.4
2016-Dec-05 06:49 209 1 gusting 5 14.4
2016-Dec-05 06:34 200 2 gusting 5 14.4
2016-Dec-05 06:19 140 14.4
2016-Dec-05 06:05 103 14.4
2016-Dec-05 05:48 068 13.9
2016-Dec-05 05:33 068 13.9
2016-Dec-05 05:18 068 13.9
2016-Dec-05 05:03 068 14.4
2016-Dec-05 04:48 068 14.4
2016-Dec-05 04:33 068 14.4
2016-Dec-05 04:19 068 14.4
2016-Dec-05 04:02 068 14.4
2016-Dec-05 03:47 068 14.4
2016-Dec-05 03:32 068 14.4
2016-Dec-05 03:17 068 14.4
2016-Dec-05 03:01 068 14.4
2016-Dec-05 02:50 063 14.4
2016-Dec-05 02:31 063 14.4
2016-Dec-05 02:16 063 14.4
2016-Dec-05 02:02 063 14.4
2016-Dec-05 01:46 063 14.4
2016-Dec-05 01:30 063 15.0
2016-Dec-05 01:16 063 15.0
2016-Dec-05 01:00 063 15.0
2016-Dec-05 00:46 063 15.0
2016-Dec-05 00:30 054 0 gusting 6 15.0
2016-Dec-05 00:14 058 3 gusting 7 14.4
2016-Dec-05 00:00 072 2 gusting 7 14.4
2016-Dec-04 23:45 062 0 gusting 6 14.4
2016-Dec-04 23:35 061 2 gusting 6 14.4
2016-Dec-04 23:14 068 3 gusting 9 15.0
2016-Dec-04 22:59 058 5 gusting 10 15.0
2016-Dec-04 22:45 060 2 gusting 8 15.0
2016-Dec-04 22:29 044 4 gusting 10 15.0
2016-Dec-04 22:14 055 3 gusting 10 15.0
2016-Dec-04 22:00 066 2 gusting 9 15.0
2016-Dec-04 21:43 044 2 gusting 7 15.0
2016-Dec-04 21:29 072 2 gusting 9 15.0
2016-Dec-04 21:14 072 3 gusting 8 15.0
2016-Dec-04 20:58 092 2 gusting 11 15.0
2016-Dec-04 20:44 042 4 gusting 11 15.0
2016-Dec-04 20:28 077 4 gusting 12 15.0
2016-Dec-04 20:12 066 1 gusting 11 15.0
2016-Dec-04 19:58 059 5 gusting 9 15.0
2016-Dec-04 19:42 025 4 gusting 10 15.0
2016-Dec-04 19:28 030 2 gusting 5 15.0
2016-Dec-04 19:14 029 15.0
2016-Dec-04 18:58 028 1 gusting 4 15.0
2016-Dec-04 18:42 035 1 gusting 5 15.0
2016-Dec-04 18:27 038 4 gusting 6 15.0
2016-Dec-04 18:11 043 1 gusting 6 15.0
2016-Dec-04 17:57 035 3 gusting 6 15.0
2016-Dec-04 17:41 051 1 gusting 6 15.0
2016-Dec-04 17:26 031 3 gusting 8 15.0
2016-Dec-04 17:12 049 6 gusting 12 15.0
2016-Dec-04 16:56 037 3 gusting 9 15.0
2016-Dec-04 16:41 088 2 gusting 7 15.0
2016-Dec-04 16:26 070 1 gusting 9 15.0
2016-Dec-04 16:10 060 2 gusting 8 15.6
2016-Dec-04 15:57 062 2 gusting 8 15.6
2016-Dec-04 15:40 040 3 gusting 10 15.6
2016-Dec-04 15:25 058 2 gusting 7 15.6
2016-Dec-04 15:10 063 0 gusting 7 15.6
2016-Dec-04 14:55 069 2 gusting 10 15.6
2016-Dec-04 14:40 064 0 gusting 7 15.6
2016-Dec-04 14:25 086 15.6
2016-Dec-04 14:10 085 0 gusting 7 15.6
2016-Dec-04 13:55 055 2 gusting 8 15.6
2016-Dec-04 13:39 059 16.1
2016-Dec-04 13:25 050 3 gusting 9 16.1
2016-Dec-04 13:09 055 4 gusting 9 16.1
2016-Dec-04 12:54 057 1 gusting 8 16.1
2016-Dec-04 12:40 068 1 gusting 6 15.6
2016-Dec-04 12:24 060 2 gusting 5 15.6
2016-Dec-04 12:10 059 0 gusting 6 15.6
2016-Dec-04 11:54 067 15.6
2016-Dec-04 11:39 080 15.6
2016-Dec-04 11:24 080 15.6
2016-Dec-04 11:09 067 1 gusting 8 15.0
2016-Dec-04 10:54 061 3 gusting 7 15.0
2016-Dec-04 10:41 078 2 gusting 7 15.0
2016-Dec-04 10:24 070 0 gusting 4 15.0
2016-Dec-04 10:08 072 2 gusting 7 15.0
2016-Dec-04 09:54 067 2 gusting 8 15.0
2016-Dec-04 09:40 063 2 gusting 6 15.0
2016-Dec-04 09:24 078 2 gusting 6 15.0
2016-Dec-04 09:09 086 1 gusting 6 15.0
2016-Dec-04 08:53 078 1 gusting 3 14.4
2016-Dec-04 08:39 080 1 gusting 3 14.4
2016-Dec-04 08:23 090 0 gusting 5 14.4
2016-Dec-04 08:07 086 14.4
2016-Dec-04 07:53 086 14.4
2016-Dec-04 07:37 085 0 gusting 5 14.4
2016-Dec-04 07:23 084 14.4
2016-Dec-04 07:07 081 14.4
2016-Dec-04 06:52 086 0 gusting 3 14.4
2016-Dec-04 06:37 086 0 gusting 2 14.4
2016-Dec-04 06:24 092 14.4
2016-Dec-04 06:07 093 14.4
2016-Dec-04 05:54 094 0 gusting 3 14.4
2016-Dec-04 05:37 088 13.9
2016-Dec-04 05:21 086 13.9
2016-Dec-04 05:06 087 13.9
2016-Dec-04 04:50 087 13.9
2016-Dec-04 04:37 091 1 gusting 5 13.9
2016-Dec-04 04:20 088 13.9
2016-Dec-04 04:06 085 1 gusting 3 13.9
2016-Dec-04 03:51 074 13.9
2016-Dec-04 03:35 074 13.9
2016-Dec-04 03:21 088 1 gusting 3 13.9
2016-Dec-04 03:05 088 13.9
2016-Dec-04 02:50 088 13.9
2016-Dec-04 02:35 088 13.9
2016-Dec-04 02:19 089 1 gusting 5 13.9
2016-Dec-04 02:05 082 1 gusting 4 13.9
2016-Dec-04 01:49 089 0 gusting 5 13.9
2016-Dec-04 01:34 092 0 gusting 5 13.9
2016-Dec-04 01:19 080 1 gusting 6 13.9
2016-Dec-04 01:04 077 0 gusting 3 13.9
2016-Dec-04 00:49 076 13.9
2016-Dec-04 00:35 077 0 gusting 3 13.9
2016-Dec-04 00:19 076 0 gusting 4 13.9
2016-Dec-04 00:05 071 0 gusting 6 13.9
2016-Dec-03 23:49 096 0 gusting 6 13.9
2016-Dec-03 23:35 091 4 gusting 6 13.9
2016-Dec-03 23:19 084 13.9
2016-Dec-03 23:04 076 1 gusting 4 13.3
2016-Dec-03 22:49 071 13.3
2016-Dec-03 22:34 069 13.3
2016-Dec-03 22:19 069 13.3
2016-Dec-03 22:04 069 13.3
2016-Dec-03 21:49 069 13.3
2016-Dec-03 21:33 069 13.3
2016-Dec-03 21:19 069 13.3
2016-Dec-03 21:04 069 0 gusting 3 13.3
2016-Dec-03 20:48 073 13.3
2016-Dec-03 20:34 073 13.3
2016-Dec-03 20:20 073 13.3
2016-Dec-03 20:12 073 13.3
2016-Dec-03 19:49 078 0 gusting 2 13.3
2016-Dec-03 19:33 078 13.3
2016-Dec-03 19:19 078 13.3
2016-Dec-03 19:04 078 13.9
2016-Dec-03 18:49 078 13.9
2016-Dec-03 18:34 078 13.9
2016-Dec-03 18:18 078 13.9
2016-Dec-03 18:03 078 14.4